Weather Roundup
Issued by NWS Chicago, IL

Home | Current Version | Previous Version | Graphics & Text | Print | Product List | Glossary On
Versions: 1 2 3 4 5 6 7 8 9 10 11 12 13 14 15 16 17 18 19 20 21 22 23 24 25 26 27 28 29 30 31 32 33 34 35 36 37 38 39 40 41 42 43 44 45 46 47 48 49 50
000
NZUS59 KLOT 170610
HRRLOT

CHICAGO AREA WEATHER ROUNDUP
NATIONAL WEATHER SERVICE CHICAGO/ROMEOVILLE IL
100 AM CDT WED SEP 17 2014

NOTE: "FAIR" INDICATES FEW OR NO CLOUDS BELOW 12,000 FEET WITH NO
SIGNIFICANT WEATHER AND/OR OBSTRUCTIONS TO VISIBILITY.

* THESE STATIONS ARE NOT UNDER NWS QUALITY CONTROL. THEY ALSO MAY NOT
  REPORT WEATHER SUCH AS PRECIPITATION OR FOG.

ILZ005-006-012>014-019>023-170700-
NORTHEAST ILLINOIS

CITY           SKY/WX    TMP DP  RH WIND       PRES   REMARKS
OHARE          CLEAR     55  47  74 SW3       30.08F
6HR MIN TEMP:  55; 6HR MAX TEMP:  67;

MIDWAY         CLEAR     56  48  74 SE5       30.08F
6HR MIN TEMP:  56; 6HR MAX TEMP:  63;

AURORA         CLEAR     42  39  89 CALM      30.09F
6HR MIN TEMP:  42; 6HR MAX TEMP:  60;

LANSING*       CLEAR     47  46  97 CALM      30.09F
JOLIET*        FOG       44  42  95 CALM      30.09F VSB 1/2
WAUKEGAN       CLEAR     47  45  93 SW3       30.07F
6HR MIN TEMP:  44; 6HR MAX TEMP:  56;

DUPAGE AIRPORT CLEAR     46  43  89 CALM      30.08F
6HR MIN TEMP:  45; 6HR MAX TEMP:  60;

WHEELING       CLEAR     49  45  86 CALM      30.08F
6HR MIN TEMP:  48; 6HR MAX TEMP:  60;

KANKAKEE*      CLEAR     46  45  98 CALM      30.09S
MORRIS*        CLEAR     46  46 100 CALM      30.08F
LEWIS AIRPORT* CLEAR     46  46  98 CALM      30.09S
NORTHERLY IS     N/A     57  50  77 S6          N/A
$$

WIZ051-052-058>065-066-070>072-170700-
SOUTHEAST WISCONSIN

CITY           SKY/WX    TMP DP  RH WIND       PRES   REMARKS
MILWAUKEE      CLEAR     50  44  80 SW7       30.07F
6HR MIN TEMP:  50; 6HR MAX TEMP:  56;

KENOSHA*       CLEAR     46  44  93 SW5       30.08F
RACINE*        CLEAR     47  44  90 SW6       30.09F
BURLINGTON     CLEAR     39  39 100 CALM      30.07F FOG
WAUKESHA       CLEAR     46  43  87 S6        30.08S
WEST BEND      CLEAR     41  39  93 CALM      30.06F
$$

INZ001>003-010>013-019-020-170700-
NORTHWEST INDIANA

CITY           SKY/WX    TMP DP  RH WIND       PRES   REMARKS
GARY*          CLEAR     46  45  94 CALM      30.10S
6HR MIN TEMP:  46; 6HR MAX TEMP:  58;

MICHIGAN CITY* NOT AVBL
RENSSELAER*    NOT AVBL
VALPARAISO     CLEAR     45  44  97 CALM      30.10S FOG
$$

LMZ740>746-170700-
SOUTHERN LAKE MICHIGAN

STATION/POSITION TIME  SKY/WX   TEMP WIND        PRES    VSBY
                                AIR  DIR/SP/G
                 (UTC)          (F)  (DEG/KT/KT) (MB)    (MI)
HARRISON CRIB    0600            60  160/ 10/ 11   N/A
BURNHAM HARBOR   0600            56  170/  4/  5   N/A
CALUMET HARBOR   0600            56  170/  3/  3 1017.5F
BURNS HARBOR     NOT AVBL
MICHIGAN CITY    0600            51  130/  5/  7   N/A
$$

ABBREVIATIONS USED IN REMARKS
   TC - TEMPERATURE IN CELSIUS
  WCI - WIND CHILL INDEX
   HX - HEAT INDEX
  VSB - VISIBILITY
$$



USA.gov is the U.S. government's official web portal to all federal, state and local government web resources and services.